| time (UTC) | temp F | wind direction | speed MPH | gust MPH | rain 1hr in | rain 24hr in | rain mn in | humidity % | barometer mb |
| 20260504205716 | 68 | 229 | 2.0 | 3.0 | 0.00 | 0.00 | 0.00 | 40 | 1013.8 |
| 20260504204712 | 68 | 334 | 0.0 | 0.0 | 0.00 | 0.00 | 0.00 | 41 | 1013.7 |
| 20260504203708 | 69 | 287 | 1.0 | 2.0 | 0.00 | 0.00 | 0.00 | 39 | 1013.5 |
| 20260504202705 | 68 | 251 | 1.0 | 2.0 | 0.00 | 0.00 | 0.00 | 40 | 1013.5 |
| 20260504201700 | 68 | 59 | 1.0 | 2.0 | 0.00 | 0.00 | 0.00 | 41 | 1013.7 |
| 20260504200655 | 68 | 288 | 0.0 | 0.0 | 0.00 | 0.00 | 0.00 | 40 | 1013.7 |
| 20260504195653 | 68 | 0 | 2.0 | 3.0 | 0.00 | 0.00 | 0.00 | 40 | 1013.8 |
| 20260504194652 | 67 | 241 | 2.0 | 2.0 | 0.00 | 0.00 | 0.00 | 41 | 1013.8 |
| 20260504193650 | 67 | 238 | 1.0 | 1.0 | 0.00 | 0.00 | 0.00 | 43 | 1014.0 |
| 20260504192646 | 67 | 25 | 3.0 | 3.0 | 0.00 | 0.00 | 0.00 | 43 | 1014.3 |
| 20260504191642 | 66 | 316 | 1.0 | 1.0 | 0.00 | 0.00 | 0.00 | 45 | 1014.2 |
| 20260504190640 | 66 | 7 | 5.0 | 6.0 | 0.00 | 0.00 | 0.00 | 46 | 1014.5 |
| 20260504185639 | 66 | 109 | 0.0 | 1.0 | 0.00 | 0.00 | 0.00 | 47 | 1014.7 |
| 20260504184638 | 64 | 338 | 1.0 | 2.0 | 0.00 | 0.00 | 0.00 | 47 | 1014.7 |
| 20260504183636 | 64 | 350 | 2.0 | 2.0 | 0.00 | 0.00 | 0.00 | 48 | 1014.9 |
| 20260504182631 | 64 | 345 | 4.0 | 5.0 | 0.00 | 0.00 | 0.00 | 49 | 1014.9 |
| 20260504181631 | 62 | 346 | 2.0 | 2.0 | 0.00 | 0.00 | 0.00 | 51 | 1014.9 |
| 20260504180628 | 62 | 355 | 3.0 | 3.0 | 0.00 | 0.00 | 0.00 | 51 | 1015.1 |
| 20260504175629 | 61 | 264 | 1.0 | 2.0 | 0.00 | 0.00 | 0.00 | 54 | 1015.1 |
| 20260504174624 | 59 | 8 | 3.0 | 3.0 | 0.00 | 0.00 | 0.00 | 54 | 1015.4 |
| 20260504173623 | 59 | 102 | 3.0 | 3.0 | 0.00 | 0.00 | 0.00 | 55 | 1015.7 |
| 20260504172622 | 59 | 13 | 0.0 | 1.0 | 0.00 | 0.00 | 0.00 | 59 | 1015.5 |
| 20260504171621 | 60 | 351 | 4.0 | 5.0 | 0.00 | 0.00 | 0.00 | 53 | 1015.7 |
| 20260504170620 | 60 | 350 | 2.0 | 2.0 | 0.00 | 0.00 | 0.00 | 56 | 1015.2 |
| 20260504150554 | 62 | 55 | 2.0 | 2.0 | 0.00 | 0.00 | 0.00 | 49 | 1014.5 |
| 20260504140545 | 57 | 183 | 3.0 | 3.0 | 0.00 | 0.00 | 0.00 | 57 | 1015.4 |
| 20260504130527 | 52 | 190 | 2.0 | 2.0 | 0.00 | 0.00 | 0.00 | 66 | 1016.1 |
| 20260504110508 | 36 | 16 | 0.0 | 0.0 | 0.00 | 0.00 | 0.00 | 89 | 1017.4 |
| 20260504100448 | 34 | 20 | 0.0 | 0.0 | 0.00 | 0.00 | 0.00 | 90 | 1017.4 |
| 20260504081423 | 31 | 13 | 0.0 | 0.0 | 0.00 | 0.00 | 0.00 | 94 | 1017.5 |
| 20260504080422 | 31 | 6 | 0.0 | 0.0 | 0.00 | 0.00 | 0.00 | 94 | 1017.4 |
| 20260504070356 | 31 | 18 | 0.0 | 0.0 | 0.00 | 0.00 | 0.00 | 93 | 1017.2 |
| 20260504050328 | 31 | 329 | 0.0 | 0.0 | 0.00 | 0.00 | 0.00 | 90 | 1017.1 |
| 20260504045325 | 32 | 332 | 0.0 | 0.0 | 0.00 | 0.00 | 0.00 | 90 | 1017.2 |
| 20260504044320 | 32 | 19 | 0.0 | 0.0 | 0.00 | 0.00 | 0.00 | 90 | 1016.9 |
| 20260504043320 | 32 | 294 | 1.0 | 1.0 | 0.00 | 0.00 | 0.00 | 89 | 1017.1 |
| 20260504042320 | 32 | 345 | 0.0 | 0.0 | 0.00 | 0.00 | 0.00 | 88 | 1017.1 |
| 20260504041318 | 32 | 343 | 0.0 | 0.0 | 0.00 | 0.00 | 0.00 | 88 | 1016.9 |
| 20260504040318 | 33 | 357 | 0.0 | 0.0 | 0.00 | 0.00 | 0.00 | 88 | 1016.9 |
| 20260504035317 | 33 | 348 | 0.0 | 0.0 | 0.00 | 0.28 | 0.28 | 88 | 1016.8 |
| 20260504034312 | 33 | 343 | 0.0 | 0.0 | 0.00 | 0.28 | 0.28 | 87 | 1016.8 |
| 20260504033307 | 34 | 322 | 0.0 | 0.0 | 0.00 | 0.28 | 0.28 | 86 | 1016.7 |
| 20260504032306 | 35 | 352 | 0.0 | 0.0 | 0.00 | 0.28 | 0.28 | 84 | 1016.6 |
| 20260504031306 | 34 | 11 | 0.0 | 0.0 | 0.00 | 0.28 | 0.28 | 85 | 1016.6 |
| 20260504030306 | 35 | 307 | 0.0 | 1.0 | 0.00 | 0.28 | 0.28 | 84 | 1016.5 |
| 20260504025305 | 35 | 18 | 1.0 | 1.0 | 0.00 | 0.28 | 0.28 | 83 | 1016.6 |
| 20260504024304 | 36 | 23 | 0.0 | 0.0 | 0.00 | 0.28 | 0.28 | 82 | 1016.6 |
| 20260504023303 | 36 | 54 | 0.0 | 1.0 | 0.00 | 0.28 | 0.28 | 83 | 1016.7 |
| 20260504022301 | 37 | 23 | 0.0 | 0.0 | 0.00 | 0.28 | 0.28 | 83 | 1016.7 |
| 20260504021301 | 37 | 43 | 0.0 | 1.0 | 0.00 | 0.28 | 0.28 | 80 | 1016.6 |
| 20260504020301 | 38 | 315 | 1.0 | 1.0 | 0.00 | 0.28 | 0.28 | 79 | 1016.7 |
| 20260504015259 | 38 | 35 | 1.0 | 1.0 | 0.00 | 0.28 | 0.28 | 77 | 1016.5 |
| 20260504014257 | 38 | 45 | 0.0 | 0.0 | 0.00 | 0.28 | 0.28 | 77 | 1016.6 |
| 20260504013253 | 39 | 74 | 0.0 | 0.0 | 0.00 | 0.28 | 0.28 | 75 | 1016.7 |
| 20260504012253 | 40 | 36 | 0.0 | 0.0 | 0.00 | 0.28 | 0.28 | 75 | 1016.7 |
| 20260504011252 | 40 | 31 | 0.0 | 0.0 | 0.00 | 0.28 | 0.28 | 70 | 1016.3 |
| 20260504010249 | 41 | 33 | 1.0 | 1.0 | 0.00 | 0.28 | 0.28 | 70 | 1016.3 |
| 20260504005249 | 41 | 4 | 1.0 | 1.0 | 0.00 | 0.28 | 0.28 | 71 | 1016.3 |
| 20260504004244 | 42 | 30 | 0.0 | 1.0 | 0.00 | 0.28 | 0.28 | 68 | 1016.2 |
| 20260504003243 | 42 | 131 | 2.0 | 2.0 | 0.00 | 0.28 | 0.28 | 66 | 1015.9 |
| 20260504002242 | 43 | 18 | 0.0 | 1.0 | 0.00 | 0.28 | 0.28 | 65 | 1015.8 |
| 20260504001242 | 44 | 31 | 0.0 | 0.0 | 0.00 | 0.28 | 0.28 | 66 | 1015.9 |
| 20260504000242 | 45 | 106 | 1.0 | 1.0 | 0.00 | 0.28 | 0.28 | 60 | 1015.5 |
| 20260503235237 | 45 | 257 | 3.0 | 3.0 | 0.00 | 0.28 | 0.28 | 57 | 1015.4 |
| 20260503234233 | 46 | 268 | 1.0 | 1.0 | 0.00 | 0.28 | 0.28 | 58 | 1015.3 |
| 20260503233231 | 46 | 338 | 0.0 | 0.0 | 0.00 | 0.28 | 0.28 | 60 | 1015.4 |
| 20260503232231 | 47 | 1 | 4.0 | 5.0 | 0.00 | 0.28 | 0.28 | 56 | 1015.4 |
| 20260503231226 | 47 | 358 | 1.0 | 2.0 | 0.00 | 0.28 | 0.28 | 57 | 1015.5 |
| 20260503230226 | 47 | 8 | 0.0 | 0.0 | 0.00 | 0.28 | 0.28 | 58 | 1015.2 |
| 20260503225223 | 47 | 44 | 3.0 | 3.0 | 0.00 | 0.28 | 0.28 | 55 | 1015.1 |
| 20260503224218 | 48 | 335 | 1.0 | 2.0 | 0.00 | 0.28 | 0.28 | 52 | 1015.1 |
| 20260503223213 | 48 | 280 | 2.0 | 2.0 | 0.00 | 0.28 | 0.28 | 51 | 1015.1 |
| 20260503222213 | 49 | 264 | 2.0 | 3.0 | 0.00 | 0.28 | 0.28 | 51 | 1014.9 |
| 20260503221208 | 49 | 19 | 3.0 | 5.0 | 0.00 | 0.28 | 0.28 | 50 | 1014.9 |
| 20260503220207 | 49 | 324 | 2.0 | 2.0 | 0.00 | 0.28 | 0.28 | 48 | 1014.7 |
| 20260503215207 | 49 | 327 | 2.0 | 2.0 | 0.00 | 0.28 | 0.28 | 49 | 1014.4 |
| 20260503214207 | 49 | 322 | 4.0 | 6.0 | 0.00 | 0.28 | 0.28 | 49 | 1014.8 |
| 20260503213202 | 49 | 336 | 3.0 | 3.0 | 0.00 | 0.28 | 0.28 | 51 | 1015.0 |
| 20260503212202 | 48 | 341 | 3.0 | 3.0 | 0.00 | 0.28 | 0.28 | 53 | 1014.7 |
| 20260503211201 | 48 | 301 | 3.0 | 3.0 | 0.00 | 0.28 | 0.28 | 53 | 1014.6 |
| 20260503210200 | 49 | 358 | 3.0 | 3.0 | 0.00 | 0.28 | 0.28 | 52 | 1014.3 |